Location: Cussy
(47.0410°N, 4.6412°E)
Time: 05:47:56
(UTC+00:00)

Meteor 1-11 Rocket - Pass Details

Date: 30 November 2020
Orbit: 832 x 915 km, 81.2° (Epoch: 18 January)

Event Time Altitude Azimuth Distance (km) Brightness Sun altitude
Rises 17:37:57 0° 355° (N) 3,467 6.8 -17.0°
Reaches altitude 10° 17:40:36 10° 4° (N) 2,539 6.0 -17.5°
Maximum altitude 17:45:52 35° 70° (ENE) 1,394 4.3 -18.3°
Enters shadow 17:48:43 23° 118° (ESE) 1,814 5.0 -18.8°
